This demonstration page uses our WeatherBlox Daily Observations layout. Learn more.

Left ArrowRight Arrow

Hourly Observations for August 29, 2015

Temp ( °F °C ) Dew Point ( °F °C ) Humidity (%) Winds ( mph kmh ) Pressure ( in mb ) Visibility ( mi km ) Precip ( " mm )
12:15 am 00:15 Clear 61 16 55 13 83 83 NW 7 11 30.03 1017 10 16 0.00 0.00
12:35 am 00:35 Clear 61 16 55 13 83 83 NW 7 11 30.03 1017 10 16 0.00 0.00
12:55 am 00:55 Clear 59 15 54 12 82 82 WNW 7 11 30.03 1017 10 16 0.00 0.00
1:15 am 01:15 Clear 59 15 55 13 88 88 WNW 6 9 30.03 1017 10 16 0.00 0.00
1:35 am 01:35 Clear 59 15 55 13 88 88 NW 7 11 30.03 1017 10 16 0.00 0.00
1:55 am 01:55 Clear 59 15 54 12 82 82 NW 7 11 30.03 1017 10 16 0.00 0.00
2:15 am 02:15 Clear 59 15 54 12 82 82 NW 6 9 30.03 1017 10 16 0.00 0.00
2:35 am 02:35 Clear 59 15 54 12 82 82 NW 6 9 30.03 1017 10 16 0.00 0.00
2:55 am 02:55 Clear 57 14 54 12 88 88 WNW 6 9 30.03 1017 10 16 0.00 0.00
3:15 am 03:15 Clear 57 14 54 12 88 88 W 6 9 30.03 1017 10 16 0.00 0.00
3:35 am 03:35 Clear 61 16 55 13 83 83 W 5 7 30.03 1017 10 16 0.00 0.00
3:55 am 03:55 Clear 61 16 55 13 83 83 W 5 7 30.03 1017 10 16 0.00 0.00
4:15 am 04:15 Clear 61 16 55 13 83 83 W 3 6 30.03 1017 10 16 0.00 0.00
4:35 am 04:35 Clear 57 14 54 12 88 88 NW 6 9 30.03 1017 10 16 0.00 0.00
4:55 am 04:55 Clear 57 14 54 12 88 88 NW 6 9 30.03 1017 10 16 0.00 0.00
5:15 am 05:15 Clear 57 14 54 12 88 88 NW 7 11 30.06 1018 10 16 0.00 0.00
5:35 am 05:35 Clear 55 13 52 11 88 88 WNW 6 9 30.06 1018 10 16 0.00 0.00
5:55 am 05:55 Clear 55 13 52 11 88 88 WNW 7 11 30.06 1018 10 16 0.00 0.00
6:15 am 06:15 Clear 55 13 52 11 88 88 WNW 6 9 30.06 1018 10 16 0.00 0.00
6:35 am 06:35 Clear 55 13 52 11 88 88 WNW 6 9 30.06 1018 10 16 0.00 0.00
6:55 am 06:55 Clear 55 13 52 11 88 88 WNW 7 11 30.06 1018 9 14 0.00 0.00
7:15 am 07:15 Sunny 55 13 52 11 88 88 NW 5 7 30.09 1019 9 14 0.00 0.00
7:35 am 07:35 Sunny 55 13 52 11 88 88 NW 5 7 30.09 1019 9 14 0.00 0.00
7:55 am 07:55 Sunny 55 13 52 11 88 88 NNW 3 6 30.09 1019 8 13 0.00 0.00
8:15 am 08:15 Sunny 57 14 54 12 88 88 NW 5 7 30.09 1019 8 13 0.00 0.00
8:35 am 08:35 Sunny 57 14 54 12 88 88 NW 3 6 30.09 1019 8 13 0.00 0.00
8:55 am 08:55 Sunny 59 15 55 13 88 88 NNW 5 7 30.09 1019 9 14 0.00 0.00
9:15 am 09:15 Sunny 61 16 55 13 83 83 NNW 5 7 30.09 1019 9 14 0.00 0.00
9:35 am 09:35 Sunny 63 17 57 14 83 83 N 3 6 30.06 1018 10 16 0.00 0.00
9:55 am 09:55 Sunny 64 18 59 15 83 83 N 5 7 30.06 1018 10 16 0.00 0.00
10:15 am 10:15 Sunny 66 19 61 16 83 83 Calm 30.06 1018 10 16 0.00 0.00
10:35 am 10:35 Sunny 70 21 61 16 73 73 NNW 6 9 30.03 1017 10 16 0.00 0.00
10:55 am 10:55 Sunny 72 22 63 17 73 73 NW 3 6 30.03 1017 10 16 0.00 0.00
11:15 am 11:15 Sunny 73 23 63 17 69 69 NW 5 7 30.03 1017 10 16 0.00 0.00
11:35 am 11:35 Sunny 75 24 63 17 65 65 NW 5 7 30.03 1017 10 16 0.00 0.00
11:55 am 11:55 Sunny 75 24 63 17 65 65 WNW 6 9 30.03 1017 10 16 0.00 0.00
12:15 pm 12:15 Sunny 77 25 63 17 61 61 NW 5 7 30.00 1016 10 16 0.00 0.00
12:35 pm 12:35 Sunny 79 26 63 17 58 58 NW 7 11 30.00 1016 10 16 0.00 0.00
12:55 pm 12:55 Sunny 79 26 63 17 58 58 WNW 7 11 30.00 1016 10 16 0.00 0.00
1:15 pm 13:15 Sunny 81 27 63 17 54 54 NW 6 9 29.97 1015 10 16 0.00 0.00
1:35 pm 13:35 Sunny 81 27 63 17 54 54 WNW 5 7 29.97 1015 10 16 0.00 0.00
1:55 pm 13:55 Sunny 82 28 61 16 48 48 N 6 9 29.97 1015 10 16 0.00 0.00
2:15 pm 14:15 Sunny 82 28 61 16 48 48 E 5 7 29.97 1015 10 16 0.00 0.00
2:35 pm 14:35 Sunny 82 28 63 17 51 51 ENE 5 7 29.97 1015 10 16 0.00 0.00
2:55 pm 14:55 Sunny 84 29 63 17 48 48 E 5 7 29.94 1014 10 16 0.00 0.00
3:15 pm 15:15 Sunny 82 28 64 18 55 55 ESE 8 13 29.97 1015 6 10 0.00 0.00
3:35 pm 15:35 Sunny 84 29 63 17 48 48 E 6 9 29.94 1014 10 16 0.00 0.00
3:55 pm 15:55 Sunny 82 28 63 17 51 51 ESE 8 13 29.91 1013 5 8 0.00 0.00
4:15 pm 16:15 Sunny 82 28 63 17 51 51 SE 8 13 29.91 1013 10 16 0.00 0.00
4:35 pm 16:35 Sunny 82 28 61 16 48 48 ESE 7 11 29.91 1013 10 16 0.00 0.00
4:55 pm 16:55 Sunny 82 28 61 16 48 48 SE 6 9 29.91 1013 10 16 0.00 0.00
5:15 pm 17:15 Sunny 82 28 63 17 51 51 ESE 8 13 29.91 1013 10 16 0.00 0.00
5:35 pm 17:35 Sunny 82 28 63 17 51 51 ESE 8 13 29.91 1013 10 16 0.00 0.00
5:55 pm 17:55 Sunny 82 28 64 18 55 55 ESE 8 13 29.91 1013 10 16 0.00 0.00
6:15 pm 18:15 Sunny 81 27 64 18 58 58 ESE 8 13 29.94 1014 10 16 0.00 0.00
6:35 pm 18:35 Sunny 81 27 63 17 54 54 ESE 8 13 29.94 1014 10 16 0.00 0.00
6:55 pm 18:55 Sunny 79 26 63 17 58 58 ESE 6 9 29.91 1013 10 16 0.00 0.00
7:15 pm 19:15 Sunny 75 24 64 18 69 69 SE 6 9 29.91 1013 10 16 0.00 0.00
7:35 pm 19:35 Sunny 73 23 64 18 74 74 SE 3 6 29.94 1014 10 16 0.00 0.00
7:55 pm 19:55 Sunny 73 23 63 17 69 69 SE 6 9 29.94 1014 10 16 0.00 0.00
8:15 pm 20:15 Clear 72 22 63 17 73 73 SE 5 7 29.94 1014 10 16 0.00 0.00
8:35 pm 20:35 Clear 72 22 63 17 73 73 SE 5 7 29.94 1014 10 16 0.00 0.00
8:55 pm 20:55 Clear 70 21 63 17 78 78 SE 5 7 29.97 1015 10 16 0.00 0.00
9:15 pm 21:15 Clear 68 20 61 16 78 78 SE 3 6 29.97 1015 10 16 0.00 0.00
9:35 pm 21:35 Clear 68 20 61 16 78 78 SSE 3 6 29.97 1015 10 16 0.00 0.00
9:55 pm 21:55 Clear 66 19 61 16 83 83 SSE 5 7 30.00 1016 10 16 0.00 0.00
10:15 pm 22:15 Clear 64 18 59 15 83 83 SSE 7 11 30.00 1016 10 16 0.00 0.00
10:35 pm 22:35 Clear 64 18 59 15 83 83 SSE 7 11 30.00 1016 10 16 0.00 0.00
10:55 pm 22:55 Clear 64 18 57 14 78 78 SSE 8 13 30.00 1016 10 16 0.00 0.00
11:15 pm 23:15 Clear 64 18 57 14 78 78 SSE 8 13 30.00 1016 10 16 0.00 0.00
11:35 pm 23:35 Clear 63 17 57 14 83 83 SSE 6 9 30.00 1016 10 16 0.00 0.00
11:55 pm 23:55 Clear 63 17 57 14 83 83 S 8 13 30.00 1016 10 16 0.00 0.00

Powered by AerisWeather